TimeEST,TemperatureF,Dew PointF,Humidity,Sea Level PressureIn,VisibilityMPH,Wind Direction,Wind SpeedMPH,Gust SpeedMPH,PrecipitationIn,Events,Conditions,WindDirDegrees,DateUTC
12:54 AM,36.0,36.0,100,30.39,4.0,Calm,Calm,-,N/A,,Overcast,0,2012-12-02 05:54:00
1:54 AM,37.9,37.0,97,30.39,4.0,Calm,Calm,-,N/A,,Overcast,0,2012-12-02 06:54:00
2:32 AM,37.4,35.6,93,30.38,2.5,Calm,Calm,-,N/A,,Overcast,0,2012-12-02 07:32:00
2:54 AM,36.0,35.1,97,30.38,2.5,Calm,Calm,-,N/A,,Overcast,0,2012-12-02 07:54:00
3:22 AM,35.6,35.6,100,30.38,1.0,Calm,Calm,-,N/A,,Overcast,0,2012-12-02 08:22:00
3:32 AM,37.4,35.6,93,30.37,0.5,Calm,Calm,-,N/A,Fog,Fog,0,2012-12-02 08:32:00
3:43 AM,37.4,37.4,100,30.36,0.1,Calm,Calm,-,N/A,Fog,Fog,0,2012-12-02 08:43:00
3:54 AM,39.0,39.0,100,30.36,0.1,ENE,3.5,-,N/A,Fog,Fog,70,2012-12-02 08:54:00
4:03 AM,41.0,41.0,100,30.36,0.1,ENE,3.5,-,N/A,Fog,Fog,60,2012-12-02 09:03:00
4:54 AM,39.9,39.9,100,30.36,0.0,East,4.6,-,N/A,Fog,Fog,100,2012-12-02 09:54:00
5:54 AM,39.9,39.9,100,30.37,0.1,Calm,Calm,-,N/A,Fog,Fog,0,2012-12-02 10:54:00
6:54 AM,39.9,39.9,100,30.37,0.1,Calm,Calm,-,N/A,Fog,Fog,0,2012-12-02 11:54:00
7:54 AM,39.9,39.9,100,30.36,0.1,ESE,4.6,-,N/A,Fog,Fog,120,2012-12-02 12:54:00
8:34 AM,39.2,39.2,100,30.35,0.1,Calm,Calm,-,N/A,Fog,Fog,0,2012-12-02 13:34:00
8:54 AM,39.9,39.9,100,30.34,0.2,Variable,3.5,-,N/A,Fog,Fog,0,2012-12-02 13:54:00
9:31 AM,41.0,41.0,100,30.34,0.5,Calm,Calm,-,N/A,Fog,Fog,0,2012-12-02 14:31:00
9:41 AM,41.0,41.0,100,30.34,0.8,Calm,Calm,-,N/A,,Mist,0,2012-12-02 14:41:00
9:54 AM,41.0,41.0,100,30.35,0.8,Calm,Calm,-,N/A,,Mist,0,2012-12-02 14:54:00
10:19 AM,42.8,42.8,100,30.32,1.2,Variable,3.5,-,N/A,,Overcast,0,2012-12-02 15:19:00
10:30 AM,42.8,42.8,100,30.32,2.0,Calm,Calm,-,N/A,,Overcast,0,2012-12-02 15:30:00
10:54 AM,43.0,43.0,100,30.31,3.0,South,3.5,-,N/A,,Overcast,190,2012-12-02 15:54:00
11:10 AM,42.8,42.8,100,30.30,4.0,Calm,Calm,-,N/A,,Overcast,0,2012-12-02 16:10:00
11:54 AM,45.0,43.0,93,30.27,4.0,East,3.5,-,N/A,,Mostly Cloudy,100,2012-12-02 16:54:00
12:54 PM,50.0,44.1,80,30.23,6.0,South,4.6,-,N/A,,Haze,180,2012-12-02 17:54:00
1:54 PM,54.0,44.1,69,30.19,8.0,South,6.9,-,N/A,,Mostly Cloudy,170,2012-12-02 18:54:00
2:54 PM,55.9,44.1,64,30.16,9.0,South,4.6,-,N/A,,Mostly Cloudy,190,2012-12-02 19:54:00
3:54 PM,55.4,44.6,67,30.15,9.0,Calm,Calm,-,N/A,,Overcast,0,2012-12-02 20:54:00
4:54 PM,50.0,44.1,80,30.16,6.0,Calm,Calm,-,N/A,,Haze,0,2012-12-02 21:54:00
5:54 PM,50.0,46.0,86,30.15,5.0,Calm,Calm,-,0.00,,Overcast,0,2012-12-02 22:54:00
6:54 PM,48.9,46.0,90,30.15,5.0,Calm,Calm,-,0.00,,Overcast,0,2012-12-02 23:54:00
7:54 PM,48.9,46.0,90,30.16,5.0,Calm,Calm,-,N/A,,Overcast,0,2012-12-03 00:54:00
8:54 PM,50.0,46.9,89,30.15,5.0,NW,3.5,-,N/A,,Overcast,320,2012-12-03 01:54:00
9:54 PM,50.0,46.0,86,30.15,6.0,Calm,Calm,-,N/A,,Overcast,0,2012-12-03 02:54:00
10:54 PM,50.0,46.0,86,30.16,6.0,Calm,Calm,-,N/A,,Overcast,0,2012-12-03 03:54:00
11:54 PM,48.9,46.0,90,30.15,7.0,Calm,Calm,-,N/A,,Mostly Cloudy,0,2012-12-03 04:54:00